Change the Weather History Date:

Monday, November 11, 2013

  Actual Average Record
Temperature  
Mean Temperature 60 °F -  
Max Temperature 67 °F 58 °F 71 °F (2005)
Min Temperature 53 °F 45 °F 44 °F (2000)
Degree Days  
Heating Degree Days 5    
Growing Degree Days 10 (Base 50)    
Moisture  
Dew Point 20 °F    
Average Humidity 23    
Maximum Humidity 45    
Minimum Humidity 5    
Precipitation  
Precipitation 0.00 in 0.12 in - ()
Sea Level Pressure  
Sea Level Pressure 29.84 in    
Wind  
Wind Speed 11 mph ()    
Max Wind Speed 20 mph    
Max Gust Speed 30 mph    
Averages and records for this station are not official NWS values.
T = Trace of Precipitation, MM = Missing Value Source: Averaged Metar Reports

Daily Weather History Graph

Daily Weather History Graph

Search for Another Location

Airport or City:

Trip Planner

Search our weather history database for the weather conditions in past years. The results will help you decide how hot, cold, wet, or windy it might be!

Date:

Astronomy

Nov. 11, 2013 Rise Set
Actual Time 7:20 AM CET 5:09 PM CET
Civil Twilight 6:49 AM CET 5:40 PM CET
Nautical Twilight 6:14 AM CET 6:14 PM CET
Astronomical Twilight 5:41 AM CET 6:48 PM CET
Moon 1:52 PM CET (11/11) 12:35 AM CET (11/11)
Length of Visible Light 10h 51m
Length of Day
9h 49m
Waxing Gibbous, 63% of the Moon is Illuminated
Nov 11
Waxing Gibbous
Nov 17
Full
Nov 25
Last Quarter
Dec 3
New
Dec 9
First Quarter

Hourly Weather History & Observations

Time (CET) Temp. Dew Point Humidity Pressure Visibility Wind Dir Wind Speed Gust Speed Precip Events Conditions
12:00 AM 60.8 °F 6.8 °F 12% 29.68 in - North 18.4 mph 29.9 mph N/A   Clear
12:30 AM 60.8 °F 6.8 °F 12% 29.68 in - NNW 18.4 mph - N/A   Clear
1:00 AM 60 °F 7 °F 5% 29.70 in 31 mi North 19.6 mph - -  
1:00 AM 59.0 °F 6.8 °F 13% 29.68 in - North 19.6 mph - N/A   Clear
1:30 AM 60.8 °F 5.0 °F 11% 29.71 in - North 15.0 mph 28.8 mph N/A   Clear
2:00 AM 59.0 °F 6.8 °F 13% 29.71 in - NNE 9.2 mph - N/A   Clear
2:30 AM 59.0 °F 6.8 °F 13% 29.71 in - NNE 13.8 mph - N/A   Clear
3:00 AM 57.2 °F 8.6 °F 14% 29.71 in - North 13.8 mph - N/A   Clear
3:30 AM 55.4 °F 8.6 °F 15% 29.71 in - North 15.0 mph - N/A   Clear
4:00 AM 55.4 °F 17.6 °F 23% 29.71 in - NNW 11.5 mph - N/A   Clear
4:30 AM 55.4 °F 14.0 °F 20% 29.71 in - North 13.8 mph - N/A   Clear
5:00 AM 55.4 °F 8.6 °F 15% 29.71 in - North 15.0 mph - N/A   Clear
5:30 AM 59.0 °F 5.0 °F 12% 29.71 in - North 13.8 mph - N/A   Clear
6:00 AM 59.0 °F 5.0 °F 12% 29.74 in - North 13.8 mph - N/A   Clear
6:30 AM 57.2 °F 12.2 °F 17% 29.74 in - North 12.7 mph - N/A   Clear
7:00 AM 59 °F 13 °F 7% 29.78 in 31 mi ENE 6.9 mph - -   Clear
7:00 AM 57.2 °F 17.6 °F 21% 29.77 in - East 9.2 mph - N/A   Clear
7:30 AM 59.0 °F 12.2 °F 16% 29.80 in - ENE 8.1 mph - N/A   Clear
8:00 AM 57.2 °F 14.0 °F 18% 29.80 in - NNE 3.5 mph - N/A   Clear
8:30 AM 55.4 °F 15.8 °F 21% 29.80 in - North 5.8 mph - N/A   Clear
9:00 AM 57.2 °F 14.0 °F 18% 29.83 in - NNW 4.6 mph - N/A   Clear
9:30 AM 57.2 °F 30.2 °F 36% 29.83 in - West 5.8 mph - N/A   Clear
10:00 AM 60.8 °F 24.8 °F 25% 29.83 in - NW 5.8 mph - N/A   Clear
10:30 AM 62.6 °F 24.8 °F 24% 29.86 in - NW 4.6 mph - N/A   Clear
11:00 AM 62.6 °F 24.8 °F 24% 29.86 in - WSW 6.9 mph - N/A   Clear
11:30 AM 64.4 °F 24.8 °F 22% 29.86 in - West 6.9 mph - N/A   Clear
12:00 PM 64.4 °F 19.4 °F 18% 29.86 in - WSW 9.2 mph - N/A   Clear
12:30 PM 66.2 °F 21.2 °F 18% 29.86 in - WSW 10.4 mph - N/A   Clear
1:00 PM 66 °F 22 °F 10% 29.87 in 31 mi WSW 11.5 mph - -   Clear
1:00 PM 66.2 °F 21.2 °F 18% 29.86 in - WSW 11.5 mph - N/A   Clear
1:30 PM 66.2 °F 23.0 °F 19% 29.86 in - West 11.5 mph - N/A   Clear
2:00 PM 68.0 °F 23.0 °F 18% 29.86 in - SW 9.2 mph - N/A   Clear
2:30 PM 66.2 °F 33.8 °F 30% 29.86 in - SW 9.2 mph - N/A   Clear
3:00 PM 66.2 °F 33.8 °F 30% 29.86 in - SSW 10.4 mph - N/A   Clear
4:00 PM 66.2 °F 37.4 °F 35% 29.89 in - SSW 8.1 mph - N/A   Clear
4:30 PM 64.4 °F 37.4 °F 37% 29.92 in - SW 4.6 mph - N/A   Clear
5:00 PM 62.6 °F 41.0 °F 45% 29.92 in - West 5.8 mph - N/A   Clear
5:30 PM 59.0 °F 37.4 °F 45% 29.92 in - Variable 2.3 mph - N/A   Clear
6:00 PM 57.2 °F 32.0 °F 38% 29.92 in - NW 6.9 mph - N/A   Clear
7:00 PM 54 °F 31 °F 28% 29.95 in 31 mi NW 9.2 mph - -   Clear
7:00 PM 55.4 °F 28.4 °F 36% 29.95 in - NW 10.4 mph - N/A   Clear
7:36 PM 55.4 °F 33.8 °F 44% 29.95 in - West 12.7 mph - N/A   Clear
8:00 PM 57.2 °F 24.8 °F 29% 29.98 in - NW 8.1 mph - N/A   Clear
8:30 PM 55.4 °F 24.8 °F 31% 29.98 in - NNW 10.4 mph - N/A   Clear
9:00 PM 55.4 °F 23.0 °F 29% 29.98 in - NNW 16.1 mph - N/A   Clear
9:30 PM 55.4 °F 23.0 °F 29% 29.98 in - North 11.5 mph - N/A   Clear
10:00 PM 53.6 °F 23.0 °F 30% 29.98 in - NNW 12.7 mph - N/A   Clear
10:30 PM 53.6 °F 23.0 °F 30% 29.98 in - NNW 13.8 mph - N/A   Clear
11:00 PM 53.6 °F 21.2 °F 28% 29.98 in - NNW 15.0 mph - N/A   Clear
11:30 PM 53.6 °F 23.0 °F 30% 30.01 in - NNW 13.8 mph - N/A   Clear